| time (UTC) | temp F | wind direction | speed knots | gust knots | rain 1hr in | rain 24hr in | rain mn in | humidity % | barometer mb |
| 20260504151010 | 62 | 0.0 | 0.0 | 0.00 | 0.00 | 0.00 | 36 | 1010.8 | |
| 20260504150510 | 61 | 0.0 | 0.0 | 0.00 | 0.00 | 0.00 | 40 | 1010.9 | |
| 20260504141012 | 60 | 0.0 | 0.0 | 0.00 | 0.00 | 0.00 | 38 | 1011.2 | |
| 20260504140509 | 59 | 0.0 | 0.0 | 0.00 | 0.00 | 0.00 | 44 | 1011.2 | |
| 20260504130512 | 55 | 0.0 | 0.0 | 0.00 | 0.00 | 0.00 | 47 | 1011.7 | |
| 20260504110503 | 45 | 0.0 | 0.0 | 0.00 | 0.00 | 0.00 | 58 | 1012.1 | |
| 20260504100503 | 41 | 0.0 | 0.0 | 0.00 | 0.00 | 0.00 | 65 | 1011.6 | |
| 20260504082003 | 37 | 0.0 | 0.0 | 0.00 | 0.00 | 0.00 | 75 | 1011.2 | |
| 20260504081514 | 36 | 0.0 | 0.0 | 0.00 | 0.00 | 0.00 | 76 | 1011.1 | |
| 20260504081003 | 36 | 0.0 | 0.0 | 0.00 | 0.00 | 0.00 | 77 | 1011.2 | |
| 20260504080503 | 36 | 0.0 | 0.0 | 0.00 | 0.00 | 0.00 | 77 | 1011.2 | |
| 20260504050509 | 38 | 0.0 | 0.0 | 0.00 | 0.00 | 0.00 | 72 | 1011.2 | |
| 20260504050012 | 38 | 0.0 | 0.0 | 0.00 | 0.00 | 0.00 | 72 | 1011.3 | |
| 20260504045504 | 37 | 0.0 | 0.0 | 0.00 | 0.00 | 0.00 | 72 | 1011.4 | |
| 20260504045003 | 37 | 0.0 | 0.0 | 0.00 | 0.00 | 0.00 | 72 | 1011.4 | |
| 20260504044516 | 37 | 0.0 | 0.0 | 0.00 | 0.00 | 0.00 | 73 | 1011.4 | |
| 20260504044008 | 36 | 0.0 | 0.0 | 0.00 | 0.00 | 0.00 | 73 | 1011.4 | |
| 20260504043508 | 36 | 0.0 | 0.0 | 0.00 | 0.00 | 0.00 | 72 | 1011.5 | |
| 20260504043020 | 37 | 0.0 | 0.0 | 0.00 | 0.00 | 0.00 | 72 | 1011.4 | |
| 20260504042506 | 36 | 0.0 | 0.0 | 0.00 | 0.00 | 0.00 | 72 | 1011.4 | |
| 20260504042008 | 37 | 0.0 | 0.0 | 0.00 | 0.00 | 0.00 | 72 | 1011.4 | |
| 20260504041519 | 37 | 0.0 | 0.0 | 0.00 | 0.00 | 0.00 | 71 | 1011.4 | |
| 20260504041008 | 37 | 0.0 | 0.0 | 0.00 | 0.00 | 0.00 | 71 | 1011.3 | |
| 20260504040506 | 37 | 0.0 | 0.0 | 0.00 | 0.00 | 0.00 | 70 | 1011.3 | |
| 20260504040019 | 37 | 0.0 | 0.0 | 0.00 | 0.00 | 0.00 | 70 | 1011.2 | |
| 20260504035505 | 37 | 0.0 | 0.0 | 0.00 | 0.00 | 0.00 | 69 | 1011.2 | |
| 20260504035007 | 38 | 0.0 | 0.0 | 0.00 | 0.00 | 0.00 | 69 | 1011.2 | |
| 20260504034518 | 38 | 0.0 | 0.0 | 0.00 | 0.00 | 0.00 | 68 | 1011.2 | |
| 20260504034003 | 38 | 0.0 | 0.0 | 0.00 | 0.00 | 0.00 | 68 | 1011.2 | |
| 20260504033503 | 38 | 0.0 | 0.0 | 0.00 | 0.00 | 0.00 | 67 | 1011.1 | |
| 20260504033023 | 38 | 0.0 | 0.0 | 0.00 | 0.00 | 0.00 | 67 | 1011.1 | |
| 20260504032507 | 39 | 0.0 | 0.0 | 0.00 | 0.00 | 0.00 | 67 | 1011.1 | |
| 20260504032007 | 39 | 0.0 | 0.0 | 0.00 | 0.00 | 0.00 | 66 | 1011.1 | |
| 20260504031520 | 39 | 0.0 | 0.0 | 0.00 | 0.00 | 0.00 | 65 | 1011.1 | |
| 20260504031007 | 39 | 0.0 | 0.0 | 0.00 | 0.00 | 0.00 | 65 | 1011.1 | |
| 20260504030506 | 39 | 0.0 | 0.0 | 0.00 | 0.00 | 0.00 | 65 | 1011.0 | |
| 20260504030034 | 39 | 0.0 | 0.0 | 0.00 | 0.00 | 0.00 | 64 | 1011.0 | |
| 20260504025508 | 39 | 0.0 | 0.0 | 0.00 | 0.00 | 0.00 | 64 | 1010.9 | |
| 20260504025007 | 40 | 0.0 | 0.0 | 0.00 | 0.00 | 0.00 | 64 | 1010.8 | |
| 20260504024523 | 40 | 0.0 | 0.0 | 0.00 | 0.00 | 0.00 | 63 | 1011.0 | |
| 20260504024008 | 40 | 0.0 | 0.0 | 0.00 | 0.00 | 0.00 | 63 | 1010.9 | |
| 20260504023507 | 40 | 0.0 | 0.0 | 0.00 | 0.00 | 0.00 | 63 | 1011.0 | |
| 20260504023015 | 40 | 0.0 | 0.0 | 0.00 | 0.00 | 0.00 | 63 | 1011.0 | |
| 20260504022503 | 40 | 0.0 | 0.0 | 0.00 | 0.00 | 0.00 | 62 | 1010.9 | |
| 20260504022006 | 41 | 0.0 | 0.0 | 0.00 | 0.00 | 0.00 | 61 | 1010.9 | |
| 20260504021520 | 41 | 0.0 | 0.0 | 0.00 | 0.00 | 0.00 | 60 | 1010.9 | |
| 20260504021006 | 41 | 0.0 | 0.0 | 0.00 | 0.00 | 0.00 | 60 | 1010.9 | |
| 20260504020506 | 41 | 0.0 | 0.0 | 0.00 | 0.00 | 0.00 | 58 | 1010.9 | |
| 20260504020025 | 42 | 0.0 | 0.0 | 0.00 | 0.00 | 0.00 | 58 | 1010.9 | |
| 20260504015508 | 42 | 0.0 | 0.0 | 0.00 | 0.00 | 0.00 | 56 | 1010.9 | |
| 20260504015012 | 42 | 0.0 | 0.0 | 0.00 | 0.00 | 0.00 | 56 | 1010.9 | |
| 20260504014525 | 43 | 0.0 | 0.0 | 0.00 | 0.00 | 0.00 | 54 | 1010.9 | |
| 20260504014009 | 43 | 0.0 | 0.0 | 0.00 | 0.00 | 0.00 | 53 | 1010.8 | |
| 20260504013507 | 43 | 0.0 | 0.0 | 0.00 | 0.00 | 0.00 | 50 | 1010.8 | |
| 20260504013026 | 44 | 0.0 | 0.0 | 0.00 | 0.00 | 0.00 | 49 | 1010.7 | |
| 20260504012507 | 44 | 0.0 | 0.0 | 0.00 | 0.00 | 0.00 | 48 | 1010.6 | |
| 20260504012006 | 45 | 0.0 | 0.0 | 0.00 | 0.00 | 0.00 | 47 | 1010.5 | |
| 20260504011522 | 46 | 0.0 | 0.0 | 0.00 | 0.00 | 0.00 | 44 | 1010.4 | |
| 20260504011007 | 47 | 0.0 | 0.0 | 0.00 | 0.00 | 0.00 | 39 | 1010.4 | |
| 20260504010512 | 47 | 0.0 | 0.0 | 0.00 | 0.00 | 0.00 | 39 | 1010.3 | |
| 20260504010022 | 48 | 0.0 | 0.0 | 0.00 | 0.00 | 0.00 | 38 | 1010.2 | |
| 20260504005508 | 48 | 0.0 | 0.0 | 0.00 | 0.00 | 0.00 | 40 | 1010.2 | |
| 20260504005009 | 48 | 0.0 | 0.0 | 0.00 | 0.00 | 0.00 | 40 | 1010.2 | |
| 20260504004524 | 49 | 0.0 | 0.0 | 0.00 | 0.00 | 0.00 | 38 | 1010.1 | |
| 20260504004008 | 48 | 0.0 | 0.0 | 0.00 | 0.00 | 0.00 | 38 | 1010.0 | |
| 20260504003508 | 48 | 0.0 | 0.0 | 0.00 | 0.00 | 0.00 | 38 | 1010.0 | |
| 20260504003023 | 48 | 0.0 | 0.0 | 0.00 | 0.00 | 0.00 | 40 | 1010.0 | |
| 20260504002508 | 48 | 0.0 | 0.0 | 0.00 | 0.00 | 0.00 | 40 | 1009.8 | |
| 20260504002008 | 48 | 0.0 | 0.0 | 0.00 | 0.00 | 0.00 | 39 | 1009.7 | |
| 20260504001524 | 48 | 0.0 | 0.0 | 0.00 | 0.00 | 0.00 | 39 | 1009.7 | |
| 20260504001007 | 49 | 0.0 | 0.0 | 0.00 | 0.00 | 0.00 | 36 | 1009.6 | |
| 20260504000510 | 49 | 0.0 | 0.0 | 0.00 | 0.00 | 0.00 | 34 | 1009.5 | |
| 20260504000020 | 49 | 0.0 | 0.0 | 0.00 | 0.00 | 0.00 | 34 | 1009.4 | |
| 20260503235504 | 50 | 0.0 | 0.0 | 0.00 | 0.00 | 0.00 | 34 | 1009.4 | |
| 20260503235007 | 50 | 0.0 | 0.0 | 0.00 | 0.00 | 0.00 | 35 | 1009.4 | |
| 20260503234527 | 49 | 0.0 | 0.0 | 0.00 | 0.00 | 0.00 | 33 | 1009.3 | |
| 20260503234008 | 49 | 0.0 | 0.0 | 0.00 | 0.00 | 0.00 | 35 | 1009.2 | |
| 20260503233507 | 50 | 0.0 | 0.0 | 0.00 | 0.00 | 0.00 | 34 | 1009.1 | |
| 20260503233025 | 50 | 0.0 | 0.0 | 0.00 | 0.00 | 0.00 | 32 | 1009.1 | |
| 20260503232509 | 50 | 0.0 | 0.0 | 0.00 | 0.00 | 0.00 | 33 | 1009.0 | |
| 20260503232009 | 50 | 0.0 | 0.0 | 0.00 | 0.00 | 0.00 | 32 | 1009.0 | |
| 20260503231531 | 51 | 0.0 | 0.0 | 0.00 | 0.00 | 0.00 | 30 | 1008.9 | |
| 20260503231008 | 51 | 0.0 | 0.0 | 0.00 | 0.00 | 0.00 | 31 | 1009.0 | |
| 20260503230509 | 52 | 0.0 | 0.0 | 0.00 | 0.00 | 0.00 | 30 | 1008.9 | |
| 20260503230025 | 52 | 0.0 | 0.0 | 0.00 | 0.00 | 0.00 | 30 | 1008.9 | |
| 20260503225505 | 52 | 0.0 | 0.0 | 0.00 | 0.00 | 0.00 | 30 | 1008.8 | |
| 20260503225009 | 52 | 0.0 | 0.0 | 0.00 | 0.00 | 0.00 | 30 | 1008.8 | |
| 20260503224523 | 52 | 0.0 | 0.0 | 0.00 | 0.00 | 0.00 | 31 | 1008.7 | |
| 20260503224007 | 52 | 0.0 | 0.0 | 0.00 | 0.00 | 0.00 | 31 | 1008.7 | |
| 20260503223506 | 52 | 0.0 | 0.0 | 0.00 | 0.00 | 0.00 | 31 | 1008.7 | |
| 20260503223027 | 52 | 0.0 | 0.0 | 0.00 | 0.00 | 0.00 | 32 | 1008.8 | |
| 20260503222505 | 52 | 0.0 | 0.0 | 0.00 | 0.00 | 0.00 | 33 | 1008.9 | |
| 20260503222009 | 52 | 0.0 | 0.0 | 0.00 | 0.00 | 0.00 | 32 | 1008.7 | |
| 20260503221525 | 52 | 0.0 | 0.0 | 0.00 | 0.00 | 0.00 | 33 | 1008.8 | |
| 20260503221010 | 52 | 0.0 | 0.0 | 0.00 | 0.00 | 0.00 | 33 | 1008.8 | |
| 20260503220509 | 52 | 0.0 | 0.0 | 0.00 | 0.00 | 0.00 | 32 | 1008.9 | |
| 20260503220034 | 52 | 0.0 | 0.0 | 0.00 | 0.00 | 0.00 | 33 | 1008.8 | |
| 20260503215508 | 52 | 0.0 | 0.0 | 0.00 | 0.00 | 0.00 | 35 | 1008.9 | |
| 20260503215011 | 52 | 0.0 | 0.0 | 0.00 | 0.00 | 0.00 | 35 | 1008.9 | |
| 20260503214527 | 51 | 0.0 | 0.0 | 0.00 | 0.00 | 0.00 | 34 | 1009.0 | |
| 20260503214006 | 51 | 0.0 | 0.0 | 0.00 | 0.00 | 0.00 | 36 | 1009.0 | |
| 20260503213511 | 52 | 0.0 | 0.0 | 0.00 | 0.00 | 0.00 | 35 | 1008.9 | |
| 20260503213037 | 52 | 0.0 | 0.0 | 0.00 | 0.00 | 0.00 | 34 | 1008.9 | |
| 20260503212510 | 53 | 0.0 | 0.0 | 0.00 | 0.00 | 0.00 | 33 | 1008.8 | |
| 20260503212012 | 52 | 0.0 | 0.0 | 0.00 | 0.00 | 0.00 | 33 | 1008.7 | |
| 20260503211529 | 53 | 0.0 | 0.0 | 0.00 | 0.00 | 0.00 | 35 | 1008.8 | |
| 20260503211014 | 53 | 0.0 | 0.0 | 0.00 | 0.00 | 0.00 | 40 | 1008.8 | |
| 20260503210508 | 52 | 0.0 | 0.0 | 0.00 | 0.00 | 0.00 | 38 | 1008.9 | |
| 20260503210024 | 52 | 0.0 | 0.0 | 0.00 | 0.00 | 0.00 | 35 | 1008.8 | |
| 20260503205513 | 52 | 0.0 | 0.0 | 0.00 | 0.00 | 0.00 | 37 | 1008.8 | |
| 20260503205009 | 52 | 0.0 | 0.0 | 0.00 | 0.00 | 0.00 | 39 | 1008.9 | |
| 20260503204536 | 51 | 0.0 | 0.0 | 0.00 | 0.00 | 0.00 | 38 | 1008.7 | |
| 20260503204011 | 51 | 0.0 | 0.0 | 0.00 | 0.00 | 0.00 | 37 | 1008.7 | |
| 20260503203507 | 52 | 0.0 | 0.0 | 0.00 | 0.00 | 0.00 | 36 | 1008.9 | |
| 20260503203024 | 52 | 0.0 | 0.0 | 0.00 | 0.00 | 0.00 | 39 | 1008.8 | |
| 20260503202508 | 53 | 0.0 | 0.0 | 0.00 | 0.00 | 0.00 | 37 | 1008.8 | |
| 20260503202004 | 51 | 0.0 | 0.0 | 0.00 | 0.00 | 0.00 | 36 | 1008.8 | |
| 20260503201511 | 52 | 0.0 | 0.0 | 0.00 | 0.00 | 0.00 | 35 | 1008.9 | |
| 20260503201003 | 52 | 0.0 | 0.0 | 0.00 | 0.00 | 0.00 | 37 | 1008.8 | |
| 20260503200502 | 52 | 0.0 | 0.0 | 0.00 | 0.00 | 0.00 | 40 | 1008.9 | |
| 20260503200011 | 51 | 0.0 | 0.0 | 0.00 | 0.00 | 0.00 | 36 | 1009.0 | |
| 20260503195504 | 51 | 0.0 | 0.0 | 0.00 | 0.00 | 0.00 | 38 | 1009.0 | |
| 20260503195007 | 50 | 0.0 | 0.0 | 0.00 | 0.00 | 0.00 | 40 | 1008.9 | |
| 20260503194522 | 50 | 0.0 | 0.0 | 0.00 | 0.00 | 0.00 | 37 | 1009.0 | |
| 20260503194006 | 51 | 0.0 | 0.0 | 0.00 | 0.00 | 0.00 | 40 | 1008.8 | |
| 20260503193508 | 51 | 0.0 | 0.0 | 0.00 | 0.00 | 0.00 | 39 | 1009.0 | |
| 20260503193006 | 51 | 0.0 | 0.0 | 0.00 | 0.00 | 0.00 | 38 | 1008.8 | |
| 20260503192502 | 51 | 0.0 | 0.0 | 0.00 | 0.00 | 0.00 | 37 | 1009.0 | |
| 20260503192002 | 52 | 0.0 | 0.0 | 0.00 | 0.00 | 0.00 | 38 | 1008.9 | |
| 20260503191507 | 50 | 0.0 | 0.0 | 0.00 | 0.00 | 0.00 | 39 | 1008.9 | |
| 20260503191006 | 49 | 0.0 | 0.0 | 0.00 | 0.00 | 0.00 | 41 | 1009.0 | |
| 20260503190504 | 48 | 0.0 | 0.0 | 0.00 | 0.00 | 0.00 | 40 | 1009.0 | |
| 20260503190009 | 48 | 0.0 | 0.0 | 0.00 | 0.00 | 0.00 | 42 | 1009.0 | |
| 20260503185509 | 48 | 0.0 | 0.0 | 0.00 | 0.00 | 0.00 | 40 | 1009.0 | |
| 20260503185005 | 48 | 0.0 | 0.0 | 0.00 | 0.00 | 0.00 | 40 | 1009.0 | |
| 20260503184517 | 48 | 0.0 | 0.0 | 0.00 | 0.00 | 0.00 | 38 | 1009.0 | |
| 20260503184006 | 50 | 0.0 | 0.0 | 0.00 | 0.00 | 0.00 | 37 | 1009.2 | |
| 20260503183508 | 50 | 0.0 | 0.0 | 0.00 | 0.00 | 0.00 | 38 | 1009.0 | |
| 20260503183026 | 49 | 0.0 | 0.0 | 0.00 | 0.00 | 0.00 | 37 | 1009.0 | |
| 20260503182512 | 50 | 0.0 | 0.0 | 0.00 | 0.00 | 0.00 | 37 | 1009.2 | |
| 20260503182004 | 51 | 0.0 | 0.0 | 0.00 | 0.00 | 0.00 | 40 | 1009.0 | |
| 20260503181506 | 50 | 0.0 | 0.0 | 0.00 | 0.00 | 0.00 | 40 | 1009.0 | |
| 20260503181003 | 50 | 0.0 | 0.0 | 0.00 | 0.00 | 0.00 | 38 | 1009.0 | |
| 20260503180503 | 50 | 0.0 | 0.0 | 0.00 | 0.00 | 0.00 | 38 | 1008.9 | |
| 20260503180021 | 50 | 0.0 | 0.0 | 0.00 | 0.00 | 0.00 | 38 | 1008.9 | |
| 20260503175505 | 49 | 0.0 | 0.0 | 0.00 | 0.00 | 0.00 | 38 | 1008.9 | |
| 20260503175002 | 49 | 0.0 | 0.0 | 0.00 | 0.00 | 0.00 | 37 | 1008.8 | |
| 20260503174519 | 50 | 0.0 | 0.0 | 0.00 | 0.00 | 0.00 | 38 | 1008.8 | |
| 20260503174005 | 50 | 0.0 | 0.0 | 0.00 | 0.00 | 0.00 | 37 | 1008.9 | |
| 20260503173507 | 49 | 0.0 | 0.0 | 0.00 | 0.00 | 0.00 | 40 | 1008.8 | |
| 20260503173018 | 49 | 0.0 | 0.0 | 0.00 | 0.00 | 0.00 | 39 | 1008.7 | |
| 20260503172505 | 49 | 0.0 | 0.0 | 0.00 | 0.00 | 0.00 | 38 | 1008.7 | |
| 20260503172010 | 49 | 0.0 | 0.0 | 0.00 | 0.00 | 0.00 | 38 | 1008.7 | |
| 20260503171528 | 51 | 0.0 | 0.0 | 0.00 | 0.00 | 0.00 | 41 | 1008.7 | |
| 20260503171003 | 50 | 0.0 | 0.0 | 0.00 | 0.00 | 0.00 | 42 | 1008.7 | |
| 20260503170505 | 49 | 0.0 | 0.0 | 0.00 | 0.00 | 0.00 | 40 | 1008.8 |